User: anonymous   Login
Location: Unspecified
(0.0000°N, 0.0000°E)
Time: 18:36:27
(UTC+00:00)
Language:

OFEQ 11 - Orbit

View from above orbital plane
View from above orbital plane
View from above satellite
View from above satellite

Ground track
Ground track

The orbit data is extracted from the following two-line orbital elements,

1 41759U 16056A   19166.08673945 0.00000000  00000-0  00000-0 0    02
2 41759 141.9552  39.2005 0006334  76.5401 283.4591 15.34623288    07
Epoch (UTC): 15 June 2019 02:04:54
Eccentricity: 0.0006334
inclination: 141.9552°
perigee height: 458 km
apogee height: 466 km
right ascension of ascending node: 39.2005°
argument of perigee: 76.5401°
revolutions per day: 15.34623288
mean anomaly at epoch: 283.4591°
orbit number at epoch: 0

The dashed part of the orbit path shows where the satellite is in the earth's shadow,  

DLR